GAF409 RJFU-RJCC

Flight info

Callsign GAF409
Flight time 1h 55m
Altitude 33000
Route CHIKU5 OOITA Y45 MIHOU Y14 GOLDO Y19 MRE Y13 SIRAO Y139 NAVER NACKSA
Aircraft CL60/H-SADE3FGHIJ1J3J4J7P2RWXY/LB1

Departure

Time 2026-04-29 22:17
Airport Nagasaki Airport (RJFU)

Arrival

Time 2026-04-30 00:12
Airport New Chitose Airport (RJCC)
Time Latitude Longitude Altitude Speed Heading
2026-04-29 22:03 32.91672 129.91882 3 ft 0 kts 48°
2026-04-29 22:06 32.91646 129.91891 3 ft 8 kts 213°
2026-04-29 22:06 32.91598 129.91846 4 ft 10 kts 200°
2026-04-29 22:06 32.91512 129.91853 4 ft 14 kts 162°
2026-04-29 22:07 32.91416 129.91917 5 ft 10 kts 137°
2026-04-29 22:07 32.91356 129.91983 6 ft 12 kts 137°
2026-04-29 22:07 32.91282 129.92061 7 ft 15 kts 138°
2026-04-29 22:07 32.91198 129.92156 8 ft 17 kts 135°
2026-04-29 22:08 32.91099 129.92258 9 ft 20 kts 138°
2026-04-29 22:08 32.90988 129.92377 10 ft 22 kts 138°
2026-04-29 22:08 32.90880 129.92493 10 ft 11 kts 139°
2026-04-29 22:08 32.90831 129.92532 10 ft 10 kts 163°
2026-04-29 22:09 32.90773 129.92505 10 ft 0 kts 229°
2026-04-29 22:16 32.90770 129.92502 10 ft 2 kts 228°
2026-04-29 22:16 32.90736 129.92456 10 ft 9 kts 228°
2026-04-29 22:16 32.90720 129.92386 10 ft 11 kts 317°
2026-04-29 22:16 32.91050 129.92035 7 ft 120 kts 319°
2026-04-29 22:17 32.91848 129.91185 401 ft 173 kts 321°
2026-04-29 22:17 32.92771 129.90218 1340 ft 186 kts 321°
2026-04-29 22:17 32.93784 129.89134 2176 ft 212 kts 320°
2026-04-29 22:17 32.94964 129.87875 2956 ft 249 kts 319°
2026-04-29 22:18 32.96294 129.86450 3984 ft 271 kts 319°
2026-04-29 22:18 32.97750 129.84888 4859 ft 290 kts 317°
2026-04-29 22:18 32.99294 129.83417 6385 ft 292 kts 327°
2026-04-29 22:18 33.01138 129.82532 7886 ft 294 kts 345°
2026-04-29 22:19 33.03151 129.82428 9256 ft 300 kts
2026-04-29 22:19 33.05122 129.83240 10465 ft 310 kts 31°
2026-04-29 22:19 33.06745 129.84990 11537 ft 324 kts 46°
2026-04-29 22:19 33.08260 129.87012 12499 ft 337 kts 46°
2026-04-29 22:20 33.09867 129.89149 13430 ft 350 kts 45°
2026-04-29 22:20 33.11508 129.91328 14442 ft 357 kts 45°
2026-04-29 22:20 33.12944 129.93758 15388 ft 367 kts 63°
2026-04-29 22:20 33.13790 129.96701 16135 ft 380 kts 81°
2026-04-29 22:21 33.13823 129.99916 16509 ft 397 kts 105°
2026-04-29 22:21 33.12856 130.03000 16905 ft 401 kts 126°
2026-04-29 22:21 33.11328 130.05769 16966 ft 398 kts 130°
2026-04-29 22:21 33.09775 130.08504 16991 ft 403 kts 130°
2026-04-29 22:22 33.08177 130.11319 17652 ft 412 kts 130°
2026-04-29 22:22 33.06608 130.14094 18762 ft 406 kts 130°
2026-04-29 22:22 33.05032 130.16882 19751 ft 404 kts 131°
2026-04-29 22:22 33.03470 130.19638 20533 ft 407 kts 131°
2026-04-29 22:23 33.01873 130.22452 21220 ft 412 kts 131°
2026-04-29 22:23 33.00295 130.25285 21881 ft 420 kts 128°
2026-04-29 22:23 32.99058 130.28503 22581 ft 434 kts 113°
2026-04-29 22:23 32.98488 130.32086 23164 ft 450 kts 97°
2026-04-29 22:24 32.98747 130.35806 23745 ft 462 kts 81°
2026-04-29 22:24 32.99415 130.39568 24294 ft 469 kts 80°
2026-04-29 22:24 33.00092 130.43378 24919 ft 474 kts 80°
2026-04-29 22:24 33.00772 130.47227 25550 ft 478 kts 81°
2026-04-29 22:25 33.01450 130.51064 26184 ft 480 kts 82°
2026-04-29 22:25 33.02138 130.54962 26732 ft 485 kts 82°
2026-04-29 22:25 33.02833 130.58905 27281 ft 489 kts 81°
2026-04-29 22:25 33.03536 130.62897 27831 ft 493 kts 81°
2026-04-29 22:26 33.04241 130.66911 28297 ft 498 kts 82°
2026-04-29 22:26 33.04951 130.70962 28757 ft 502 kts 82°
2026-04-29 22:26 33.05660 130.75009 29264 ft 504 kts 83°
2026-04-29 22:26 33.06370 130.79076 29733 ft 507 kts 82°
2026-04-29 22:27 33.07094 130.83228 30113 ft 511 kts 83°
2026-04-29 22:27 33.07812 130.87352 30482 ft 516 kts 82°
2026-04-29 22:27 33.08545 130.91569 30790 ft 520 kts 82°
2026-04-29 22:27 33.09271 130.95755 31149 ft 524 kts 83°
2026-04-29 22:28 33.10015 131.00060 31454 ft 528 kts 83°
2026-04-29 22:28 33.10754 131.04334 31833 ft 530 kts 82°
2026-04-29 22:28 33.11500 131.08655 32208 ft 531 kts 82°
2026-04-29 22:28 33.12235 131.12932 32553 ft 533 kts 82°
2026-04-29 22:29 33.12977 131.17253 32880 ft 535 kts 82°
2026-04-29 22:29 33.13720 131.21588 33277 ft 535 kts 82°
2026-04-29 22:29 33.14467 131.25944 33718 ft 535 kts 82°
2026-04-29 22:29 33.15210 131.30299 34117 ft 535 kts 82°
2026-04-29 22:30 33.15946 131.34625 34560 ft 535 kts 82°
2026-04-29 22:30 33.16688 131.38989 34964 ft 535 kts 82°
2026-04-29 22:30 33.17423 131.43335 35036 ft 541 kts 81°
2026-04-29 22:31 33.19042 131.52145 35041 ft 550 kts 76°
2026-04-29 22:31 33.21953 131.60612 35048 ft 553 kts 61°
2026-04-29 22:32 33.26326 131.68115 35049 ft 549 kts 47°
2026-04-29 22:32 33.31945 131.74277 35061 ft 542 kts 32°
2026-04-29 22:33 33.38368 131.78709 35064 ft 532 kts 18°
2026-04-29 22:33 33.45195 131.82239 35064 ft 531 kts 17°
2026-04-29 22:34 33.51987 131.85748 35066 ft 531 kts 17°
2026-04-29 22:34 33.58778 131.89259 35070 ft 532 kts 17°
2026-04-29 22:35 33.65538 131.92761 35064 ft 532 kts 17°
2026-04-29 22:35 33.72360 131.96298 35068 ft 532 kts 17°
2026-04-29 22:36 33.79203 131.99849 35068 ft 533 kts 17°
2026-04-29 22:36 33.85990 132.03365 35067 ft 533 kts 16°
2026-04-29 22:37 33.92817 132.06909 35067 ft 532 kts 17°
2026-04-29 22:37 33.99626 132.10452 35081 ft 532 kts 16°
2026-04-29 22:38 34.06475 132.14027 35089 ft 533 kts 17°
2026-04-29 22:38 34.13145 132.18085 35085 ft 539 kts 22°
2026-04-29 22:39 34.19797 132.22407 35095 ft 539 kts 22°
2026-04-29 22:39 34.26395 132.26695 35095 ft 539 kts 22°
2026-04-29 22:40 34.33009 132.30998 35082 ft 539 kts 22°
2026-04-29 22:40 34.39652 132.35326 35087 ft 539 kts 22°
2026-04-29 22:41 34.46249 132.39609 35079 ft 539 kts 21°
2026-04-29 22:41 34.52902 132.43930 35077 ft 539 kts 21°
2026-04-29 22:42 34.59489 132.48213 35079 ft 540 kts 21°
2026-04-29 22:42 34.66100 132.52521 35086 ft 540 kts 21°
2026-04-29 22:43 34.72742 132.56856 35075 ft 540 kts 21°
2026-04-29 22:43 34.79372 132.61191 35088 ft 540 kts 21°
2026-04-29 22:44 34.85968 132.65511 35109 ft 540 kts 22°
2026-04-29 22:44 34.92623 132.69878 35082 ft 541 kts 22°
2026-04-29 22:45 34.99247 132.74229 35085 ft 541 kts 22°
2026-04-29 22:45 35.06956 132.79306 35093 ft 542 kts 22°
2026-04-29 22:46 35.12475 132.82945 35091 ft 541 kts 22°
2026-04-29 22:46 35.19095 132.87308 35093 ft 540 kts 22°
2026-04-29 22:47 35.25750 132.91628 35096 ft 540 kts 21°
2026-04-29 22:47 35.32360 132.95921 35103 ft 542 kts 21°
2026-04-29 22:48 35.39014 133.00255 35117 ft 542 kts 21°
2026-04-29 22:48 35.45658 133.04666 35120 ft 545 kts 25°
2026-04-29 22:49 35.51798 133.10214 35123 ft 555 kts 38°
2026-04-29 22:49 35.57011 133.17248 35127 ft 561 kts 51°
2026-04-29 22:50 35.61277 133.25302 35123 ft 562 kts 56°
2026-04-29 22:50 35.65430 133.33438 35123 ft 562 kts 57°
2026-04-29 22:51 35.69564 133.41545 35126 ft 561 kts 56°
2026-04-29 22:51 35.75761 133.53725 35125 ft 562 kts 56°
2026-04-29 22:52 35.79910 133.61896 35126 ft 563 kts 56°
2026-04-29 22:52 35.84044 133.70053 35132 ft 562 kts 57°
2026-04-29 22:53 35.88158 133.78189 35133 ft 563 kts 56°
2026-04-29 22:53 35.92283 133.86369 35130 ft 563 kts 57°
2026-04-29 22:54 35.96422 133.94592 35139 ft 563 kts 56°
2026-04-29 22:54 36.00566 134.02841 35131 ft 563 kts 56°
2026-04-29 22:55 36.04691 134.11075 35135 ft 564 kts 56°
2026-04-29 22:55 36.08792 134.19278 35143 ft 564 kts 56°
2026-04-29 22:56 36.12900 134.27513 35141 ft 563 kts 56°
2026-04-29 22:56 36.16988 134.35730 35143 ft 563 kts 56°
2026-04-29 22:57 36.21759 134.45344 35143 ft 564 kts 57°
2026-04-29 22:57 36.25171 134.52231 35151 ft 564 kts 56°
2026-04-29 22:58 36.29265 134.60490 35143 ft 564 kts 57°
2026-04-29 22:58 36.33358 134.68806 35146 ft 564 kts 57°
2026-04-29 22:59 36.37420 134.77080 35150 ft 564 kts 56°
2026-04-29 22:59 36.41509 134.85428 35152 ft 564 kts 58°
2026-04-29 23:00 36.45565 134.93726 35157 ft 564 kts 56°
2026-04-29 23:00 36.49607 135.02014 35156 ft 564 kts 57°
2026-04-29 23:01 36.53656 135.10336 35152 ft 564 kts 57°
2026-04-29 23:01 36.57710 135.18690 35157 ft 564 kts 56°
2026-04-29 23:02 36.61726 135.26993 35155 ft 563 kts 57°
2026-04-29 23:02 36.65754 135.35350 35153 ft 564 kts 57°
2026-04-29 23:03 36.69784 135.43729 35156 ft 564 kts 56°
2026-04-29 23:03 36.73799 135.52084 35153 ft 565 kts 56°
2026-04-29 23:04 36.77818 135.60458 35159 ft 564 kts 57°
2026-04-29 23:04 36.81834 135.68849 35152 ft 565 kts 56°
2026-04-29 23:05 36.85870 135.77304 35140 ft 566 kts 57°
2026-04-29 23:05 36.89898 135.85767 35147 ft 565 kts 57°
2026-04-29 23:06 36.93916 135.94228 35157 ft 566 kts 57°
2026-04-29 23:06 36.97909 136.02663 35156 ft 566 kts 57°
2026-04-29 23:07 37.01902 136.11118 35157 ft 567 kts 56°
2026-04-29 23:07 37.05913 136.19632 35158 ft 568 kts 57°
2026-04-29 23:08 37.09924 136.28169 35156 ft 570 kts 56°
2026-04-29 23:08 37.13937 136.36726 35161 ft 576 kts 57°
2026-04-29 23:09 37.18002 136.45424 35156 ft 580 kts 56°
2026-04-29 23:09 37.22060 136.54131 35159 ft 581 kts 56°
2026-04-29 23:10 37.26115 136.62854 35158 ft 580 kts 56°
2026-04-29 23:10 37.30170 136.71599 35154 ft 580 kts 57°
2026-04-29 23:11 37.34233 136.80385 35160 ft 580 kts 57°
2026-04-29 23:11 37.38244 136.89084 35166 ft 580 kts 57°
2026-04-29 23:12 37.42281 136.97864 35167 ft 581 kts 56°
2026-04-29 23:12 37.46327 137.06685 35164 ft 582 kts 57°
2026-04-29 23:13 37.50339 137.15456 35162 ft 582 kts 57°
2026-04-29 23:13 37.54386 137.24327 35162 ft 583 kts 56°
2026-04-29 23:14 37.58383 137.33115 35165 ft 582 kts 56°
2026-04-29 23:14 37.62399 137.41968 35158 ft 582 kts 56°
2026-04-29 23:15 37.66412 137.50838 35167 ft 583 kts 56°
2026-04-29 23:15 37.70416 137.59709 35172 ft 583 kts 56°
2026-04-29 23:16 37.74419 137.68608 35172 ft 582 kts 56°
2026-04-29 23:16 37.78384 137.77444 35180 ft 582 kts 56°
2026-04-29 23:17 37.82359 137.86327 35182 ft 583 kts 57°
2026-04-29 23:17 37.86350 137.95267 35186 ft 583 kts 57°
2026-04-29 23:18 37.90322 138.04195 35193 ft 583 kts 56°
2026-04-29 23:18 37.94283 138.13123 35184 ft 583 kts 56°
2026-04-29 23:19 37.98240 138.22064 35182 ft 583 kts 57°
2026-04-29 23:19 38.02238 138.31043 35176 ft 582 kts 53°
2026-04-29 23:20 38.06982 138.39143 35174 ft 570 kts 40°
2026-04-29 23:20 38.12765 138.45862 35172 ft 555 kts 27°
2026-04-29 23:21 38.19118 138.51251 35180 ft 547 kts 22°
2026-04-29 23:21 38.25469 138.56470 35184 ft 538 kts 21°
2026-04-29 23:22 38.31715 138.61609 35185 ft 535 kts 21°
2026-04-29 23:22 38.37963 138.66759 35191 ft 533 kts 22°
2026-04-29 23:23 38.44183 138.71893 35191 ft 533 kts 22°
2026-04-29 23:23 38.50388 138.77028 35191 ft 533 kts 22°
2026-04-29 23:24 38.56600 138.82181 35195 ft 532 kts 22°
2026-04-29 23:24 38.62777 138.87311 35201 ft 533 kts 22°
2026-04-29 23:25 38.68990 138.92487 35207 ft 532 kts 21°
2026-04-29 23:25 38.75169 138.97644 35213 ft 533 kts 22°
2026-04-29 23:26 38.81348 139.02812 35215 ft 532 kts 21°
2026-04-29 23:26 38.87562 139.08019 35209 ft 535 kts 22°
2026-04-29 23:27 38.93798 139.13258 35220 ft 534 kts 21°
2026-04-29 23:27 39.00000 139.18480 35217 ft 534 kts 21°
2026-04-29 23:28 39.06159 139.23677 35214 ft 532 kts 21°
2026-04-29 23:28 39.12358 139.28917 35204 ft 533 kts 22°
2026-04-29 23:29 39.18537 139.34151 35199 ft 535 kts 21°
2026-04-29 23:29 39.24754 139.39430 35205 ft 533 kts 21°
2026-04-29 23:30 39.30943 139.44698 35205 ft 533 kts 21°
2026-04-29 23:30 39.37109 139.49957 35203 ft 531 kts 21°
2026-04-29 23:31 39.43277 139.55228 35204 ft 532 kts 21°
2026-04-29 23:31 39.49438 139.60503 35204 ft 532 kts 21°
2026-04-29 23:32 39.55624 139.65811 35198 ft 532 kts 22°
2026-04-29 23:32 39.61770 139.71100 35203 ft 531 kts 21°
2026-04-29 23:33 39.67895 139.76378 35201 ft 532 kts 21°
2026-04-29 23:33 39.74055 139.81697 35204 ft 533 kts 21°
2026-04-29 23:34 39.80218 139.87038 35199 ft 529 kts 20°
2026-04-29 23:34 39.86374 139.92430 35209 ft 529 kts 21°
2026-04-29 23:35 39.92554 139.97862 35199 ft 531 kts 20°
2026-04-29 23:35 39.98645 140.03233 35190 ft 530 kts 21°
2026-04-29 23:36 40.04758 140.08632 35193 ft 531 kts 21°
2026-04-29 23:36 40.10004 140.13281 35151 ft 529 kts 20°
2026-04-29 23:37 40.16073 140.18665 35195 ft 530 kts 21°
2026-04-29 23:37 40.22144 140.24060 35194 ft 530 kts 20°
2026-04-29 23:38 40.28247 140.29500 35195 ft 528 kts 19°
2026-04-29 23:38 40.34292 140.34900 35181 ft 526 kts 20°
2026-04-29 23:39 40.40316 140.40291 35186 ft 525 kts 20°
2026-04-29 23:39 40.46389 140.45735 35165 ft 526 kts 19°
2026-04-29 23:40 40.52391 140.51129 35163 ft 526 kts 20°
2026-04-29 23:40 40.58433 140.56573 35167 ft 523 kts 19°
2026-04-29 23:41 40.64423 140.61983 35171 ft 521 kts 19°
2026-04-29 23:41 40.70367 140.67362 35173 ft 518 kts 19°
2026-04-29 23:42 40.73427 140.69852 35174 ft 504 kts 12°
2026-04-29 23:42 40.76544 140.71809 35167 ft 487 kts
2026-04-29 23:42 40.82818 140.74905 35325 ft 483 kts
2026-04-29 23:43 40.85995 140.76451 35021 ft 486 kts
2026-04-29 23:43 40.89159 140.78005 35156 ft 484 kts
2026-04-29 23:43 40.95472 140.81117 35172 ft 486 kts
2026-04-29 23:44 41.01784 140.84247 35174 ft 483 kts
2026-04-29 23:44 41.08078 140.87370 35171 ft 484 kts
2026-04-29 23:45 41.14379 140.90503 35175 ft 483 kts
2026-04-29 23:45 41.20683 140.93642 35160 ft 485 kts
2026-04-29 23:46 41.26988 140.96794 35079 ft 483 kts
2026-04-29 23:46 41.30112 140.98363 34665 ft 477 kts
2026-04-29 23:46 41.33193 140.99901 34212 ft 467 kts
2026-04-29 23:47 41.36215 141.01392 33747 ft 462 kts
2026-04-29 23:47 41.39192 141.02858 33295 ft 458 kts
2026-04-29 23:47 41.42191 141.04334 32824 ft 456 kts
2026-04-29 23:47 41.45124 141.05778 32374 ft 452 kts
2026-04-29 23:48 41.48072 141.07233 31892 ft 450 kts
2026-04-29 23:48 41.50983 141.08668 31458 ft 447 kts
2026-04-29 23:48 41.53890 141.10104 30998 ft 445 kts
2026-04-29 23:48 41.56753 141.11523 30545 ft 438 kts
2026-04-29 23:49 41.59611 141.12942 30101 ft 430 kts
2026-04-29 23:49 41.62367 141.14311 29655 ft 423 kts
2026-04-29 23:49 41.65100 141.15668 29228 ft 417 kts
2026-04-29 23:49 41.67783 141.17000 28812 ft 411 kts 10°
2026-04-29 23:50 41.70440 141.18333 28399 ft 406 kts 11°
2026-04-29 23:50 41.73067 141.19659 28003 ft 401 kts 11°
2026-04-29 23:50 41.78239 141.22276 27181 ft 391 kts 12°
2026-04-29 23:51 41.80774 141.23558 26791 ft 389 kts 12°
2026-04-29 23:51 41.83257 141.24817 26410 ft 385 kts 12°
2026-04-29 23:51 41.85771 141.26092 25994 ft 380 kts 12°
2026-04-29 23:51 41.88218 141.27335 25626 ft 375 kts 12°
2026-04-29 23:52 41.90644 141.28567 25249 ft 371 kts 12°
2026-04-29 23:52 41.93027 141.29779 24866 ft 367 kts 13°
2026-04-29 23:52 41.95404 141.31024 24492 ft 365 kts 16°
2026-04-29 23:52 41.97554 141.32806 24135 ft 376 kts 30°
2026-04-29 23:53 41.99488 141.35217 23730 ft 378 kts 35°
2026-04-29 23:53 42.01370 141.37651 23344 ft 374 kts 34°
2026-04-29 23:53 42.03223 141.40039 22960 ft 370 kts 35°
2026-04-29 23:53 42.05068 141.42418 22596 ft 367 kts 34°
2026-04-29 23:54 42.06923 141.44807 22221 ft 365 kts 34°
2026-04-29 23:54 42.08732 141.47144 21859 ft 362 kts 34°
2026-04-29 23:54 42.10548 141.49487 21487 ft 359 kts 34°
2026-04-29 23:54 42.12355 141.51808 21116 ft 355 kts 33°
2026-04-29 23:55 42.14232 141.53853 20758 ft 347 kts 27°
2026-04-29 23:55 42.16164 141.55791 20414 ft 344 kts 27°
2026-04-29 23:55 42.18076 141.57713 20072 ft 343 kts 28°
2026-04-29 23:55 42.19980 141.59630 19715 ft 340 kts 27°
2026-04-29 23:56 42.21880 141.61543 19365 ft 339 kts 27°
2026-04-29 23:56 42.23750 141.63428 19030 ft 338 kts 27°
2026-04-29 23:56 42.25618 141.65311 18676 ft 336 kts 28°
2026-04-29 23:56 42.27502 141.67212 18341 ft 334 kts 27°
2026-04-29 23:57 42.29357 141.69084 18001 ft 334 kts 27°
2026-04-29 23:57 42.31193 141.70940 17667 ft 333 kts 28°
2026-04-29 23:57 42.33037 141.72804 17340 ft 331 kts 28°
2026-04-29 23:57 42.34884 141.74674 16988 ft 329 kts 28°
2026-04-29 23:58 42.36691 141.76503 16664 ft 328 kts 28°
2026-04-29 23:58 42.38525 141.78361 16318 ft 326 kts 29°
2026-04-29 23:58 42.40322 141.80183 15999 ft 325 kts 28°
2026-04-29 23:58 42.42135 141.82024 15676 ft 324 kts 28°
2026-04-29 23:59 42.43938 141.83855 15331 ft 323 kts 29°
2026-04-29 23:59 42.45726 141.85672 15015 ft 322 kts 28°
2026-04-29 23:59 42.47517 141.87494 14682 ft 320 kts 29°
2026-04-29 23:59 42.49292 141.89299 14179 ft 318 kts 30°
2026-04-30 00:00 42.51055 141.91098 13927 ft 317 kts 29°
2026-04-30 00:00 42.52817 141.92889 13596 ft 317 kts 30°
2026-04-30 00:00 42.54641 141.94473 13277 ft 308 kts 18°
2026-04-30 00:00 42.56670 141.95125 12947 ft 296 kts 358°
2026-04-30 00:01 42.58712 141.94878 12627 ft 294 kts 348°
2026-04-30 00:01 42.60753 141.94423 12321 ft 295 kts 348°
2026-04-30 00:01 42.62795 141.93976 12019 ft 296 kts 348°
2026-04-30 00:01 42.64808 141.93536 11725 ft 293 kts 348°
2026-04-30 00:02 42.66807 141.93102 11423 ft 288 kts 348°
2026-04-30 00:02 42.68766 141.92674 11159 ft 282 kts 348°
2026-04-30 00:02 42.70679 141.92258 10842 ft 279 kts 348°
2026-04-30 00:02 42.72594 141.91840 10578 ft 272 kts 348°
2026-04-30 00:03 42.74439 141.91438 10160 ft 269 kts 348°
2026-04-30 00:03 42.76297 141.91031 9592 ft 270 kts 348°
2026-04-30 00:03 42.78154 141.90625 9105 ft 269 kts 347°
2026-04-30 00:03 42.80001 141.90221 8550 ft 267 kts 347°
2026-04-30 00:04 42.81836 141.89819 8017 ft 265 kts 347°
2026-04-30 00:04 42.83637 141.89426 7492 ft 263 kts 347°
2026-04-30 00:04 42.85426 141.89033 6944 ft 261 kts 347°
2026-04-30 00:04 42.87230 141.88638 6373 ft 260 kts 346°
2026-04-30 00:05 42.89000 141.88249 5776 ft 260 kts 347°
2026-04-30 00:05 42.90801 141.87854 5175 ft 261 kts 348°
2026-04-30 00:05 42.92577 141.87444 4560 ft 262 kts 344°
2026-04-30 00:05 42.94230 141.86420 3896 ft 260 kts 320°
2026-04-30 00:06 42.95375 141.84576 3299 ft 256 kts 294°
2026-04-30 00:06 42.95788 141.82298 3156 ft 242 kts 268°
2026-04-30 00:06 42.95604 141.79990 2930 ft 249 kts 256°
2026-04-30 00:06 42.95224 141.77718 2558 ft 244 kts 255°
2026-04-30 00:07 42.94845 141.75459 2188 ft 240 kts 255°
2026-04-30 00:07 42.94490 141.73325 2028 ft 220 kts 255°
2026-04-30 00:07 42.94165 141.71367 2021 ft 205 kts 255°
2026-04-30 00:07 42.93858 141.69525 2012 ft 194 kts 255°
2026-04-30 00:08 42.93401 141.67835 1984 ft 188 kts 233°
2026-04-30 00:08 42.92386 141.66756 1979 ft 185 kts 199°
2026-04-30 00:08 42.91118 141.66615 1986 ft 184 kts 175°
2026-04-30 00:08 42.89842 141.66858 1988 ft 184 kts 173°
2026-04-30 00:09 42.88589 141.67097 1979 ft 184 kts 174°
2026-04-30 00:09 42.87339 141.67319 1738 ft 171 kts 173°
2026-04-30 00:09 42.86209 141.67516 1574 ft 163 kts 173°
2026-04-30 00:09 42.85086 141.67712 1358 ft 159 kts 173°
2026-04-30 00:10 42.84064 141.67892 1179 ft 139 kts 173°
2026-04-30 00:10 42.83144 141.68053 976 ft 127 kts 172°
2026-04-30 00:10 42.82288 141.68204 805 ft 122 kts 172°
2026-04-30 00:10 42.81446 141.68350 619 ft 119 kts 172°
2026-04-30 00:11 42.80631 141.68495 484 ft 118 kts 171°
2026-04-30 00:11 42.79818 141.68637 344 ft 118 kts 171°
2026-04-30 00:11 42.79002 141.68782 166 ft 117 kts 172°
2026-04-30 00:11 42.78222 141.68918 76 ft 102 kts 172°
2026-04-30 00:12 42.77683 141.69012 81 ft 55 kts 172°
2026-04-30 00:12 42.77335 141.69051 74 ft 45 kts 179°
2026-04-30 00:12 42.77125 141.68999 76 ft 17 kts 201°
2026-04-30 00:12 42.77104 141.68900 77 ft 17 kts 315°
2026-04-30 00:13 42.77224 141.68869 74 ft 22 kts 352°
2026-04-30 00:13 42.77394 141.68843 77 ft 25 kts 354°
2026-04-30 00:13 42.77574 141.68816 82 ft 27 kts 352°
2026-04-30 00:13 42.77773 141.68779 82 ft 30 kts 352°
2026-04-30 00:14 42.78003 141.68736 77 ft 35 kts 351°
2026-04-30 00:14 42.78262 141.68690 72 ft 39 kts 353°
2026-04-30 00:14 42.78510 141.68646 78 ft 35 kts 352°
2026-04-30 00:14 42.78572 141.68631 80 ft 0 kts 351°
2026-04-30 00:17 42.78580 141.68630 80 ft 7 kts 352°
2026-04-30 00:17 42.78674 141.68614 83 ft 21 kts 352°
2026-04-30 00:17 42.78839 141.68579 85 ft 25 kts 351°
2026-04-30 00:18 42.79021 141.68484 81 ft 30 kts 328°
2026-04-30 00:18 42.79180 141.68272 83 ft 33 kts 302°
2026-04-30 00:18 42.79265 141.67964 77 ft 37 kts 276°
2026-04-30 00:18 42.79246 141.67606 76 ft 39 kts 263°
2026-04-30 00:19 42.79230 141.67395 72 ft 9 kts 273°
2026-04-30 00:19 42.79291 141.67325 71 ft 16 kts 354°
2026-04-30 00:19 42.79429 141.67299 66 ft 23 kts 349°
2026-04-30 00:19 42.79612 141.67265 63 ft 29 kts 353°
2026-04-30 00:20 42.79820 141.67233 69 ft 30 kts 352°
2026-04-30 00:20 42.80025 141.67191 68 ft 29 kts 351°
2026-04-30 00:20 42.80118 141.67209 65 ft 10 kts 75°
2026-04-30 00:20 42.80125 141.67293 70 ft 4 kts 83°
2026-04-30 00:21 42.80127 141.67305 70 ft 0 kts 83°